Flag for Australia Weather past 2 weeks in Traralgon, Victoria, Australia

Now
55 °F

Overcast.


Feels Like: 55 °F
Forecast: 43 / 61 °F
Wind: 2 mph from Northwest

Location: Latrobe Valley Airport

Current Time: Apr 22, 2015 at 9:58:55 AM

Latest Report: Apr 22, 2015 at 9:00 AM


Visibility: N/A

Pressure: 30.30 "Hg

Humidity: 98%

Dew point: 55 °F

Location of TraralgonLocation

Historic Weather in Traralgon — Graph

°F

Traralgon temperature yesterday

Maximum temperature yesterday: 63 °F (at 2:00 PM)
Minimum temperature yesterday: 33 °F (at 5:00 AM)
Average temperature yesterday: 47 °F

Past Weeks' High & Low Weather Summary

 TemperatureHumidityPressure
High76 °F (Apr 15, 3:00 PM)100% (Apr 7, 8:00 AM)30.63 "Hg (Apr 7, 8:00 AM)
Low33 °F (Apr 21, 5:00 AM)41% (Apr 20, 3:00 PM)29.84 "Hg (Apr 7, 8:00 AM)
Average55 °F86%30.21 "Hg
* Reported Apr 7 8:00 AM — Apr 22 8:00 AM, Traralgon, Weather by CustomWeather, © 2015

Note: Actual official high and low records may vary slightly from our data, if they occured in-between our weather recording intervals... More about our weather records

Advertising

Traralgon weather history for previous 24 hours

 ConditionsComfort  
Time TempWeatherWind HumidityBarometerVisibility
8:00 AM
Wed, Apr 22
51 °FCool.No wind99%30.31 "HgN/A
6:00 AM47 °FPassing clouds.1 mph100%30.31 "HgN/A
5:00 AM48 °FCool.No wind100%30.31 "HgN/A
3:00 AM48 °FOvercast.1 mph100%30.32 "HgN/A
2:00 AM47 °FCool.No wind100%30.35 "HgN/A
12:00 AM45 °FOvercast.No wind99%30.37 "HgN/A
11:00 PM
Tue, Apr 21
45 °FQuite cool.No wind99%30.39 "HgN/A
9:00 PM46 °FCool.1 mph90%30.42 "HgN/A
8:00 PM48 °FCool.No wind84%30.42 "HgN/A
6:00 PM55 °FCool.6 mph65%30.42 "HgN/A
5:00 PM59 °FRefreshingly cool.7 mph56%30.41 "HgN/A
3:00 PM63 °FPassing clouds.9 mph49%30.42 "HgN/A
2:00 PM63 °FMild.9 mph51%30.41 "HgN/A
12:00 PM60 °FOvercast.8 mph61%30.46 "HgN/A
11:00 AM59 °FCool.7 mph65%30.49 "HgN/A
9:00 AM44 °FScattered clouds.3 mph100%30.52 "Hg4 mi
Weather by CustomWeather, © 2015

See weather overviewHow to use our weather pages